User: anonymous   Login
Location: Unspecified
(0.0000°N, 0.0000°E)
Time: 06:31:05
(UTC+00:00)
Language:

Saudisat 1A - Orbit

View from above orbital plane
View from above orbital plane
View from above satellite
View from above satellite

Ground track
Ground track

The orbit data is extracted from the following two-line orbital elements,

1 26546U 00057B   20336.47686099 +.00000431 +00000-0 +59030-4 0  9997
2 26546 064.5547 339.3867 0029527 226.3991 133.4668 14.91092417094969
Epoch (UTC): 01 December 2020 11:26:40
Eccentricity: 0.0029527
inclination: 64.5547°
perigee height: 574 km
apogee height: 615 km
right ascension of ascending node: 339.3867°
argument of perigee: 226.3991°
revolutions per day: 14.91092417
mean anomaly at epoch: 133.4668°
orbit number at epoch: 9496

The dashed part of the orbit path shows where the satellite is in the earth's shadow,  

DLR